Preview of NWS' New Version of Forecast
This preview is not operational and should not be used for support decisions.

Regional Weather Roundup (RWR)

Issued by National Weather Service (NWS)

                            
000
ASUS45 KBOI 241610
RWRID 

IDAHO REGIONAL WEATHER ROUNDUP
NATIONAL WEATHER SERVICE BOISE ID
1000 AM MDT MON JUN 24 2019

NOTE: "FAIR" INDICATES FEW OR NO CLOUDS BELOW 12000 FEET
WITH NO SIGNIFICANT WEATHER AND/OR OBSTRUCTIONS TO VISIBILITY

IDZ012-014-241700-
SOUTHWEST IDAHO

  
CITY           SKY/WX    TMP DP  RH WIND       PRES   REMARKS
BOISE          SUNNY     64  40  41 NW7       30.01S                  
CALDWELL       SUNNY     64  42  44 NW6       30.01S                  
MOUNTAIN HOME  SUNNY     67  37  33 NW8       30.00F                  
$$

IDZ016-017-241700-
SOUTHCENTRAL IDAHO

  
CITY           SKY/WX    TMP DP  RH WIND       PRES   REMARKS
BURLEY         SUNNY     62  38  40 W12       30.01S                  
JEROME         SUNNY     62  41  46 W8        30.03S                  
TWIN FALLS     SUNNY     64  37  36 NW10      30.03S                  
$$

IDZ019>023-241700-
SOUTHEAST IDAHO

  
CITY           SKY/WX    TMP DP  RH WIND       PRES   REMARKS
IDAHO FALLS    SUNNY     60  37  42 SW17      30.01S                  
POCATELLO      MOSUNNY   64  38  38 W18       30.02S                  
REXBURG        SUNNY     58  39  49 SW10      30.00S                  
$$

IDZ006-010-011-018-031-032-241700-
CENTRAL IDAHO MOUNTAINS

  
CITY           SKY/WX    TMP DP  RH WIND       PRES   REMARKS
MCCALL         SUNNY     53  37  54 S7        30.01S                  
HAILEY         MOSUNNY   57  39  51 SE7       30.04F                  
STANLEY          N/A     53  32  44 N3        30.06S                  
SALMON         PTSUNNY   58  40  51 N6        29.99F                  
CHALLIS        SUNNY     61  36  39 N3        29.98F                  
$$

IDZ002-004-006-007-026-241700-
NORTHERN IDAHO

  
CITY           SKY/WX    TMP DP  RH WIND       PRES   REMARKS
LEWISTON       SUNNY     64  42  44 CALM      29.98S                  
LOWELL           N/A     58  49  72 S3        29.98F                  
COEUR D'ALENE  MOSUNNY   58  43  57 S10       29.98S                  
MULLAN PASS    CLOUDY    42  35  76 CALM      30.01R                  
$$